Location: Finnegan
(51.1333°N, 112.0833°W)
Time: 14:50:34
(UTC+00:00)

Envisat - Pass Details

Date: 11 December 2021
Orbit: 764 x 766 km, 98.2° (Epoch: 28 January)

Event Time Altitude Azimuth Distance (km) Brightness Sun altitude
Rises 11:11:22 0° 27° (NNE) 3,246 6.7 -38.0°
Reaches altitude 10° 11:14:30 10° 47° (NE) 2,314 6.0 -37.5°
Maximum altitude 11:17:48 17° 87° (E) 1,862 5.6 -37.0°
Drops below altitude 10° 11:21:05 10° 128° (SE) 2,301 5.9 -36.5°
Sets 11:24:11 0° 148° (SSE) 3,221 6.5 -36.0°
